Weather in Samarga

Russia / Primorsky Krai     47°15′06″N   138°48′07″E
temp.,
°C
wind,
m/s
gust,
m/s
humid.,
%
clouds,
%
prec.,
mm/h
press.,
hPa
HPBL,
m
8 may, sat
sat801:00+5ne3692100 0.1 999274
04:00+4ne4893100 0.1 998403
07:00+5ne41093100 0.9 996523
10:00+4ne4894100 3.3 997418
13:00+5ne4790100 0.3 998397
16:00+6ne2388100 0.3 999196
19:00+5ene239292 0.0 1001118
22:00+4ne1195100 0.1 100345
9 may, sun
sun901:00+4e129699 0.0 100460
04:00+4ene2696100 0.1 1003300
07:00+3ene2497100 0.1 1004264
10:00+2ne4896100 1.1 1004469
13:00+3ne3896100 1.1 1004515
16:00+4ne2492100 2.0 1003493
19:00+4ene1592100 0.8 1003355
22:00+3ene0196100 1.0 100445
10 may, mon
mon1001:00+3s0098100 0.9 100239
04:00+3ese1299100 2.6 100394
07:00+3sse1199100 1.5 100486
10:00+4sse2298100 1.9 1004193
13:00+4se3396100 0.0 1006303
16:00+3sse2297100 0.5 1007259
19:00+3ese1298100 2.3 1010184
22:00+3w1297100 3.8 1012101
11 may, tue
tue1101:00+3wnw1195100 0.1 101338
04:00+3e2398100 0.6 1015143
07:00+2e1398100 1.4 1017437
10:00+3se1197100 2.0 1019407
13:00+3se1194100 0.1 1020401
16:00+3se119199 0.1 1020343
19:00+3s118883 0.0 1020195
22:00+1wsw119438 0.0 102123
12 may, wed
wed1201:00+1wsw119334 0.0 102125
04:00+1wsw119316 0.0 102126
07:00+4wsw11895 0.0 1021101
10:00+8sse33757 0.0 1020480
13:00+8sse4472100 0.0 1019524
16:00+7s3581100 0.0 1018478
19:00+4sse3693100 0.0 1017449
22:00+4s1396100 0.0 1017235